Location: Sepp�l�
(62.3000°N, 25.8667°E)
Time: 10:28:57
(UTC+00:00)

Daily predictions for brighter satellites

Satellite Brightness Start Highest point End
(mag) Time Altitude Azimuth Time Altitude Azimuth Time Altitude Azimuth
Cosmos 1821 Rocket 4.4 19:21:06 10° SSW 19:27:18 73° WNW 19:33:37 10° NNE
Cosmos 2251 Rocket 4.3 19:23:35 10° SW 19:28:49 59° NW 19:34:08 10° NE
Cosmos 540 Rocket 3.5 19:24:21 10° NW 19:29:35 89° WSW 19:34:47 10° SSE
Cosmos 2082 Rocket 2.4 19:25:22 10° SSW 19:30:52 53° ESE 19:36:24 10° NE
GENESIS II 4.3 19:27:07 10° WNW 19:31:11 86° SSW 19:35:11 10° ESE
Cosmos 2322 Rocket 2.5 19:28:08 10° NW 19:33:49 67° SW 19:39:28 10° SSE
Cosmos 676 Rocket 4.2 19:29:32 10° S 19:34:42 53° ESE 19:39:55 10° NE
Cosmos 2237 4.3 19:30:13 10° NW 19:36:00 85° SW 19:41:44 10° SE
Cosmos 1867 4.1 19:31:47 10° SSW 19:36:47 38° SE 19:41:49 10° ENE
CARTOSAT-1 3.8 19:34:33 10° S 19:38:53 71° WSW 19:43:14 10° NNW
Cosmos 841 Rocket 3.6 19:34:15 10° NW 19:39:30 79° WSW 19:44:45 10° SSE
SL-16 R/B 3.7 19:35:21 10° WNW 19:40:37 36° N 19:45:53 10° ENE
Cosmos 1184 Rocket 2.7 19:37:30 10° SSW 19:40:48 82° ESE 19:44:08 10° NNE
ERS-1 Rocket 3.3 19:37:30 10° S 19:42:32 69° WSW 19:47:34 10° NNW
Cosmos 1933 Rocket 3.7 19:39:16 10° S 19:43:38 60° E 19:48:03 10° NNE
Cosmos 1666 Rocket 4.0 19:39:52 10° SSW 19:44:10 65° WNW 19:48:32 10° NNE
Cosmos 2360 Rocket 2.3 19:40:16 10° NW 19:45:59 83° SW 19:51:41 10° SE
SPOT 5 2.9 19:43:52 10° S 19:48:12 67° WSW 19:52:40 10° NNW
Cosmos 44 4.1 19:44:53 10° WNW 19:49:22 41° SW 19:54:06 10° SSE
Cosmos 1980 Rocket 4.1 19:49:29 10° NW 19:53:48 23° WSW 19:58:05 10° SSW
ERBS 3.0 19:51:02 10° WSW 19:54:03 33° S 19:57:04 10° ESE
Cosmos 1869 Rocket 4.3 19:50:23 10° SSE 19:54:30 39° E 19:58:41 10° NNE
deb Kosmos-1763 4.0 19:50:55 10° SSW 19:54:33 77° SE 19:58:15 10° NE
Cosmos 44 Rocket 3.4 19:51:03 10° WNW 19:55:59 90° SW 20:01:02 10° ESE
Okean 3 3.6 19:52:11 10° NNW 19:56:29 71° ENE 20:00:48 10° SSE
Cosmos 1703 Rocket 4.0 19:52:45 10° NNW 19:57:05 60° W 20:01:21 10° S
COSMOS 2428 3.1 19:51:59 10° NW 19:57:42 66° NE 20:03:27 10° ESE
NOSS 0 Rocket 4.4 19:51:40 10° NW 19:57:52 60° NNE 20:04:04 10° ESE
USA 234 4.3 19:53:03 10° SSE 19:58:41 30° SW 20:04:20 10° W
Cosmos 1814 Rocket 4.2 19:53:55 10° NW 19:59:06 71° WSW 20:04:19 10° SSE
Cosmos 1602 3.7 19:55:26 10° S 19:59:21 73° E 20:03:18 10° NNE
ATLAS 5 CENTAUR R/B 2.6 19:58:30 10° W 20:00:32 26° SSW 20:04:07 10° SE
Cosmos 2100 Rocket 4.3 19:54:42 10° SSE 20:00:36 51° E 20:06:33 10° NNE
Meteor 1-20 Rocket 4.4 19:54:46 10° SSW 20:00:38 86° ESE 20:06:32 10° NNE
Cosmos 1605 Rocket 4.0 19:54:48 10° SSW 20:00:56 89° WNW 20:07:05 10° NNE
Cosmos 1500 3.8 19:59:19 10° SSE 20:02:49 38° E 20:06:19 10° NNE
Cosmos 1437 Rocket 3.6 19:59:59 10° NNW 20:03:40 46° W 20:07:18 10° S
Cosmos 1674 Rocket 4.3 20:00:01 10° N 20:04:10 42° ENE 20:08:12 11° SE
Cosmos 1570 Rocket 4.5 19:59:57 10° NW 20:05:10 58° WSW 20:10:24 10° SSE
Okean 1-7 3.6 20:00:56 10° NNW 20:05:13 56° W 20:09:26 10° S
Cosmos 1954 Rocket 4.0 20:00:30 10° SSW 20:05:49 77° ESE 20:11:10 10° NE
ATLAS 3B R/B 3.9 20:02:00 10° SSE 20:06:22 19° ESE 20:10:45 10° ENE
Cosmos 1741 Rocket 4.5 20:02:28 10° S 20:07:25 43° ESE 20:12:26 10° NE
Cosmos 2208 Rocket 4.4 20:06:02 10° NW 20:11:15 60° WSW 20:16:21 10° SSE
Cosmos 2173 Rocket 4.2 20:05:21 10° S 20:11:19 55° E 20:17:16 10° NNE
Cosmos 2237 Rocket 3.0 20:07:47 10° NW 20:13:22 51° NNE 20:18:52 10° ESE
Cosmos 1666 3.9 20:11:22 12° SE 20:14:13 27° E 20:17:27 10° NNE
Cosmos 1633 Rocket 4.2 20:10:36 10° SW 20:14:52 46° WNW 20:19:09 10° N
Cosmos 405 Rocket 2.7 20:11:12 10° SSW 20:14:56 86° WNW 20:18:45 10° NNE
Cosmos 1833 Rocket 2.9 20:09:24 10° SW 20:15:03 77° NW 20:20:45 10° NE
Meteor 1-11 Rocket 4.5 20:10:47 10° SSE 20:15:52 38° E 20:21:11 10° NNE
Iridium 4 Rocket 3.2 20:12:08 10° SSE 20:16:18 57° E 20:20:24 10° N
Cosmos 2333 Rocket 2.3 20:10:44 10° NW 20:16:35 85° NE 20:22:17 10° SE
Cosmos 407 Rocket 4.1 20:13:08 10° SW 20:18:25 64° NW 20:23:39 10° NE
Cosmos 1190 Rocket 4.4 20:13:11 10° SW 20:18:29 71° NW 20:23:51 10° NE
USA 238 DEB 3.9 20:13:24 10° SSW 20:19:49 49° SE 20:26:32 10° ENE
ALOS 2 3.5 20:15:49 10° SE 20:19:56 40° ENE 20:24:03 10° N
USA 238 3.9 20:13:32 10° SSW 20:19:56 49° SE 20:26:39 10° ENE
SAR-Lupe-2 3.5 20:18:19 10° NNE 20:21:57 78° ESE 20:25:32 10° SSW
Cosmos 1271 Rocket 3.5 20:19:31 10° N 20:23:08 41° ENE 20:26:25 12° SE
OPS 6432 4.5 20:22:45 10° SW 20:25:59 43° SSE 20:28:49 10° ENE
Cosmos 1066 Rocket 4.3 20:21:17 10° NNW 20:27:06 77° ENE 20:32:14 13° SSE
Cosmos 1733 Rocket 4.1 20:25:17 13° SSE 20:28:40 32° E 20:32:36 10° NNE
Cosmos 1459 Rocket 4.1 20:23:03 10° S 20:29:18 69° E 20:35:40 10° NNE
Cosmos 2016 Rocket 4.3 20:24:20 10° SSE 20:30:26 55° E 20:36:39 10° NNE
Cosmos 1378 3.6 20:28:36 10° N 20:32:17 50° ENE 20:35:19 14° SE
SL-4 R/B 3.4 20:30:01 10° SW 20:32:20 16° S 20:33:16 15° SSE
Geosat 4.2 20:28:03 13° SSE 20:32:36 63° SW 20:37:38 10° NW
Cosmos 2221 Rocket 3.7 20:28:54 10° NNW 20:33:23 75° WSW 20:37:30 12° S
Spot 4 3.9 20:29:51 13° SSE 20:34:11 78° ENE 20:39:03 10° NNW
Cosmos 2344 4.1 20:25:58 10° WNW 20:34:12 87° SSW 20:45:17 10° ESE
JB-3 4.5 20:31:15 10° NNE 20:35:14 59° ESE 20:39:04 11° S
Cosmos 1140 Rocket 4.2 20:30:27 10° SW 20:35:39 61° NW 20:40:54 10° NE
CENTAUR R/B 3.0 20:31:42 10° SSW 20:37:41 44° SE 20:44:41 10° ENE
Meteor 1-13 Rocket 4.4 20:32:57 10° NNW 20:38:29 66° WSW 20:43:42 11° S
Cosmos 1242 Rocket 2.5 20:35:50 10° NNW 20:39:28 89° ENE 20:42:23 15° SSE
Meteor 2-4 Rocket 4.5 20:34:48 10° NNW 20:40:17 48° W 20:45:35 10° SSW
Meteor 1-14 Rocket 4.5 20:35:04 10° SSW 20:41:00 84° WNW 20:47:03 10° NNE
MOS 1-B Rocket 4.3 20:35:43 10° NNE 20:41:18 46° E 20:46:07 13° S
Meteor 1-23 Rocket 4.3 20:37:16 10° NNW 20:43:09 89° ENE 20:48:19 14° SSE
Cosmos 2061 Rocket 4.1 20:39:07 11° S 20:45:04 64° E 20:51:12 10° NNE
Cosmos 1607 4.2 20:39:54 10° WNW 20:46:19 79° NNE 20:52:50 10° ESE
Lacrosse 5 4.0 20:44:22 10° WSW 20:46:26 12° SW 20:48:30 10° SSW
Cosmos 2084 Rocket 4.4 20:43:24 10° SSW 20:47:01 27° SE 20:50:42 10° ENE
Cosmos 1536 3.3 20:45:30 15° SSE 20:48:32 45° E 20:52:22 10° NNE
Okean 2 4.2 20:45:38 10° N 20:49:34 42° ENE 20:52:57 13° SE
Cosmos 1356 3.8 20:51:00 16° S 20:53:28 47° E 20:56:48 10° NNE
SL-16 R/B 3.9 20:52:33 10° NW 20:56:55 23° WSW 21:01:17 10° SSW
Terra 3.2 20:53:06 10° SSW 20:57:21 31° W 21:01:37 10° NNW
Cosmos 1802 Rocket 4.1 20:51:10 10° S 20:57:34 82° E 21:03:55 10° NNE
Cosmos 1378 Rocket 3.6 20:53:50 10° NNW 20:58:20 84° ENE 21:01:52 16° SSE
USA 267 3.5 20:55:22 10° E 21:01:40 46° SSE 21:07:55 10° SW
Cosmos 2219 Rocket 2.3 20:57:14 10° NW 21:02:54 67° SW 21:07:36 15° SSE
Cosmos 2233 Rocket 4.4 20:57:46 14° SSE 21:03:02 53° E 21:09:10 10° NNE
Cosmos 2322 4.1 20:57:54 10° NW 21:03:26 53° WSW 21:07:56 15° SSE
SL-27 R/B 2.2 21:01:39 10° SSW 21:04:58 80° SE 21:08:19 10° NE
Cosmos 1842 3.8 21:02:59 10° N 21:06:52 49° ENE 21:09:52 16° SE
Helios 1A 3.8 21:04:25 13° SE 21:08:01 46° ENE 21:12:05 10° NNW
COSMOS 2406 4.5 21:04:14 10° W 21:09:47 46° NNW 21:15:18 10° NE
NOSS 3-2 (A) 3.6 21:06:11 10° SW 21:12:16 69° SSE 21:19:23 10° ENE
Cosmos 1850 Rocket 4.1 21:07:40 10° SW 21:12:59 85° NW 21:18:16 10° NE
Cosmos 2082 Rocket 2.9 21:09:23 10° WSW 21:15:02 60° NW 21:20:40 10° NE
MTI 3.7 21:11:57 10° NNE 21:15:05 81° WNW 21:17:37 15° SSW
Cosmos 1975 Rocket 3.6 21:11:08 10° N 21:15:36 55° ENE 21:19:08 15° SE
EO 1 Del DPAF 3.8 21:13:14 10° NNE 21:16:51 42° E 21:19:14 19° SSE
Cosmos 2322 Rocket 4.0 21:12:51 10° NW 21:17:00 21° WSW 21:21:08 10° SSW
Thor Agena Rocket 3.8 21:12:24 10° NNE 21:17:24 53° ESE 21:21:22 16° S
Cosmos 1975 4.3 21:15:28 14° SE 21:17:58 25° E 21:21:18 10° NNE
Cosmos 1867 3.6 21:14:34 10° WSW 21:20:03 88° SSE 21:25:35 10° ENE
NOSS 3-2 (C) 3.6 21:14:15 10° SW 21:20:14 61° SE 21:27:13 10° ENE
Lacrosse 4 Rocket 2.6 21:21:47 18° SSE 21:23:45 25° ESE 21:27:13 10° ENE
SL-16 R/B 2.8 21:20:06 10° NW 21:25:46 58° NE 21:31:23 10° ESE
Tsikada Rocket 4.5 21:21:13 10° NNW 21:27:27 57° W 21:32:57 13° SSW
Cosmos 2360 Rocket 3.6 21:24:42 10° NW 21:29:23 27° WSW 21:33:38 12° SSW
ERBS 3.5 21:27:04 10° WSW 21:29:47 23° SSW 21:30:34 21° S
Cosmos 44 Rocket 4.1 21:32:42 10° WNW 21:37:14 37° SW 21:40:26 18° S
COSMOS 2487 2.7 21:38:10 21° S 21:40:12 49° ESE 21:43:34 10° NE
COSMOS 2428 3.2 21:36:27 10° NW 21:41:56 47° WSW 21:46:03 17° S
Cosmos 1674 Rocket 4.4 21:37:57 10° NNW 21:42:02 41° W 21:45:18 15° SSW
NOSS 0 Rocket 4.1 21:38:20 10° NW 21:44:30 62° SW 21:49:30 16° SSE
Cosmos 1025 Rocket 3.7 21:42:45 10° N 21:46:55 46° ENE 21:50:24 14° SE
Cosmos 1980 3.7 21:43:16 10° NW 21:48:56 72° SW 21:53:40 15° SSE
YAOGAN 11 4.3 21:45:41 17° SSE 21:49:14 78° ENE 21:53:50 10° NNW
Cosmos 1666 3.4 21:46:13 12° SW 21:49:38 50° WNW 21:53:20 10° N
DNEPR-1 R/B 4.3 21:43:24 10° WNW 21:49:57 65° SW 21:54:56 12° SE
Cosmos 2297 Rocket 4.1 21:50:03 10° SE 21:53:16 16° E 21:56:30 10° ENE
ATLAS 3B R/B 2.8 21:49:21 10° SSW 21:55:41 51° SE 22:02:08 10° ENE
ALOS 2 3.2 21:53:11 18° SSW 21:56:16 47° W 22:00:33 10° NNW
Helios 1B rocket 4.4 21:53:53 10° NE 21:56:42 18° E 21:59:25 10° SE
Cosmos 2237 Rocket 2.2 21:52:05 10° NW 21:57:44 68° SW 22:02:20 16° SSE
SL-16 R/B 3.7 21:52:37 10° ESE 21:58:23 41° NE 22:04:11 10° NNW
Cosmos 1743 2.7 21:56:20 19° S 21:59:01 84° ESE 22:02:57 10° NNE
Meteor 1-11 Rocket 4.1 21:53:26 10° SSW 21:59:05 64° WNW 22:04:56 10° NNE
Cosmos 1271 Rocket 3.8 21:55:39 10° NNW 21:59:06 34° W 22:01:32 17° SSW
Cosmos 1833 Rocket 4.2 21:54:26 10° W 21:59:44 40° NNW 22:05:03 10° NE
Cosmos 2333 Rocket 3.2 21:55:20 10° NW 22:00:27 33° WSW 22:04:16 16° SSW
In-Cosmos 22 4.5 21:56:48 10° NNW 22:02:27 65° ENE 22:07:16 14° SSE
Meteor 2-11 Rocket 4.5 21:58:26 16° S 22:03:22 81° E 22:09:31 10° NNE
Cosmos 923 Rocket 4.5 21:58:47 10° NW 22:04:08 64° NE 22:09:26 10° SE
Cosmos 1725 Rocket 4.4 21:58:50 10° SSW 22:05:06 62° WNW 22:11:25 10° NNE
Cosmos 1733 Rocket 3.6 22:02:21 12° SW 22:06:18 55° WNW 22:10:42 10° N
Cosmos 1486 Rocket 4.1 22:05:05 16° SSW 22:09:11 65° ESE 22:14:22 10° NE
USA 238 DEB 3.7 22:03:36 10° WSW 22:10:27 88° SSE 22:17:40 10° ENE
USA 238 3.7 22:03:43 10° WSW 22:10:33 88° SSE 22:17:46 10° ENE
OPS 6432 4.2 22:11:53 10° W 22:15:00 76° N 22:17:57 10° ENE
Cosmos 1437 2.5 22:13:25 10° NNW 22:16:26 78° ENE 22:18:07 23° SSE
Cosmos 1536 Rocket 3.8 22:13:58 10° NNW 22:18:19 66° ENE 22:21:41 16° SSE
EP 1 4.4 22:19:42 10° WNW 22:22:26 74° SSW 22:25:52 10° ESE
Cosmos 1536 4.2 22:21:27 10° SW 22:25:07 34° WNW 22:28:47 10° N
Cosmos 2084 Rocket 3.4 22:21:47 10° WSW 22:26:03 70° SSE 22:30:25 10° ENE
Cosmos 724 4.4 22:20:07 10° WNW 22:26:05 89° NNE 22:32:10 10° ESE
Okean 2 4.3 22:22:34 10° NNW 22:26:23 37° W 22:29:02 18° SSW
Cosmos 1943 4.1 22:22:20 10° NW 22:27:50 51° NNE 22:33:20 10° ESE
CENTAUR R/B 2.8 22:21:14 10° WSW 22:27:53 84° SSE 22:35:49 10° ENE
Cosmos 2026 Rocket 4.2 22:22:31 10° NNW 22:28:36 66° ENE 22:34:17 12° SSE
Cosmos 773 Rocket 4.4 22:23:43 10° NW 22:28:40 47° WSW 22:32:08 19° S
Cosmos 1782 Rocket 3.5 22:25:44 20° S 22:28:42 79° ESE 22:33:05 10° NNE
Cosmos 1674 3.3 22:27:42 10° N 22:31:22 49° ENE 22:34:26 14° SE
Cosmos 1538 Rocket 4.1 22:28:08 10° NW 22:33:14 60° WSW 22:37:06 17° SSE
Cosmos 1607 4.1 22:27:17 10° WNW 22:33:34 58° SW 22:39:53 10° SE
Cosmos 1707 2.8 22:31:19 10° NNW 22:35:14 68° WSW 22:37:45 21° S
Cosmos 1908 Rocket 3.8 22:33:08 16° SSW 22:36:31 63° WNW 22:40:52 10° NNE
Cosmos 1544 3.3 22:38:17 19° SSW 22:40:48 64° WNW 22:44:29 10° NNE
Cosmos 2227 Rocket 3.6 22:38:55 13° SSE 22:42:41 26° ESE 22:47:17 10° NE
Cosmos 968 Rocket 3.4 22:38:31 15° SSW 22:42:52 88° SE 22:48:04 10° NE
Helios 1A 3.8 22:41:02 19° SSW 22:43:40 39° W 22:47:41 10° NNW
CZ-2D R/B 4.0 22:40:41 10° NE 22:44:52 22° E 22:49:02 10° SE
USA 267 3.3 22:38:59 10° E 22:45:26 58° S 22:51:54 10° WSW
Cosmos 2219 Rocket 3.8 22:41:53 10° WNW 22:45:59 21° WSW 22:49:17 13° SW
Cosmos 2344 4.4 22:40:01 10° WNW 22:48:28 52° SW 22:59:50 10° SSE
EO 1 Del DPAF 4.5 22:47:21 10° N 22:50:51 36° WNW 22:54:13 11° SW
Cosmos 1464 Rocket 4.0 22:48:06 17° SSW 22:53:09 85° WNW 22:59:22 10° NNE
Cosmos 1975 Rocket 4.2 22:49:18 10° NNW 22:53:19 33° W 22:56:17 16° SW
Cosmos 1975 3.1 22:51:13 18° SSW 22:54:08 62° WNW 22:58:12 10° NNE
Thor Agena Rocket 4.5 22:51:55 10° NNE 22:56:43 44° NW 23:01:32 10° SW
Cosmos 1833 4.4 22:51:05 10° SW 22:56:45 75° NW 23:02:29 10° NE
Cosmos 2112 Rocket 4.0 22:52:55 10° NW 22:58:13 89° NE 23:03:27 10° SE
UNK 4.3 22:53:47 10° SE 22:58:22 58° ENE 23:02:59 10° NNW
Nadezhda 4 Rocket 4.3 22:53:35 10° NNW 22:59:44 55° W 23:04:34 16° SSW
Cosmos 2082 Rocket 3.9 22:54:51 10° WNW 23:00:06 36° N 23:05:19 10° ENE
Landsat 4 3.8 22:56:28 10° NNE 23:00:16 67° ESE 23:02:47 20° S
Lacrosse 4 Rocket 1.3 22:58:03 12° SW 23:02:03 88° SE 23:06:13 10° NE
NOSS 3-2 (A) 3.8 22:56:45 10° W 23:03:12 83° N 23:10:48 10° E
Cosmos 1867 4.0 22:58:31 10° W 23:03:59 66° N 23:09:28 10° E
SL-14 R/B 4.1 23:00:22 10° N 23:04:13 47° ENE 23:08:00 10° SE
Cosmos 1300 Rocket 3.6 23:02:47 19° S 23:05:51 73° E 23:10:11 10° NNE
Cosmos 1354 Rocket 4.0 23:03:08 15° SSW 23:07:33 86° ESE 23:12:56 10° NE
Cosmos 1626 2.8 23:05:37 10° N 23:09:17 53° ENE 23:12:52 10° SSE
SL-16 R/B 2.4 23:04:24 10° NW 23:10:00 57° WSW 23:15:15 12° SSE
CZ-4C R/B 3.7 23:07:04 10° SE 23:10:33 55° ENE 23:14:11 10° NNW
Spot 1 3.9 23:07:29 14° SSE 23:11:01 88° ENE 23:15:08 10° NNW
NOSS 3-2 (C) 3.8 23:04:41 10° W 23:11:05 85° NNW 23:18:37 10° E
Okean 2 Rocket 3.1 23:09:23 18° S 23:12:41 85° ESE 23:17:14 10° NNE
Cosmos 1680 Rocket 3.5 23:09:10 10° NW 23:14:24 71° WSW 23:19:34 10° SSE
COSMOS 2487 3.9 23:12:14 10° WSW 23:15:23 33° NW 23:18:35 10° NNE
Cosmos 158 Rocket 4.1 23:10:08 10° NW 23:15:28 69° WSW 23:20:50 10° SSE
Cosmos 1092 Rocket 4.2 23:11:05 10° NNW 23:17:14 61° W 23:22:17 16° S
Okean 1 Rocket 3.8 23:16:01 14° SSE 23:19:29 45° E 23:23:42 10° NNE
Okean 1-7 Rocket 4.3 23:18:14 10° N 23:22:35 53° ENE 23:26:56 10° SE
Cosmos 2034 Rocket 4.1 23:18:30 16° SSW 23:23:45 76° WNW 23:30:10 10° NNE
Cosmos 1025 Rocket 3.9 23:20:33 10° NNW 23:24:28 36° W 23:27:16 17° SSW
Meteor 1-29 3.4 23:22:30 10° NNE 23:25:54 52° ESE 23:28:20 17° S
Sich 1 Rocket 4.0 23:24:22 16° SW 23:27:48 56° WNW 23:32:09 10° N
SJ 16-02 2.8 23:25:33 11° SSE 23:29:00 28° ESE 23:32:46 10° NE
Resurs 1-4 Rocket 3.2 23:24:32 10° NNE 23:29:27 37° E 23:34:19 10° SSE
KORONAS-FOTON 4.0 23:26:09 10° NNW 23:29:54 56° W 23:32:35 18° S
Cosmos 1777 Rocket 4.2 23:25:57 16° SSW 23:30:06 64° ESE 23:35:22 10° NE
Meteor 1-24 Rocket 3.7 23:25:31 10° NNW 23:31:04 89° ENE 23:36:27 10° SSE
GB3 4.5 23:28:07 10° WSW 23:31:19 83° SSE 23:34:14 10° ENE
Helios 1B rocket 2.4 23:28:29 10° NNE 23:32:37 84° ESE 23:35:44 17° SSW
Meteor 1-12 Rocket 4.4 23:28:46 16° SSW 23:33:47 85° WNW 23:39:52 10° NNE
NOSS 5 (C) 4.1 23:30:40 10° WSW 23:33:55 88° N 23:36:54 10° ENE
Cosmos 2297 Rocket 2.6 23:31:44 16° SSW 23:36:10 53° ESE 23:41:41 10° NE
COBE Rocket 4.3 23:32:47 10° SE 23:37:21 60° ENE 23:41:58 10° NNW
IRAS Rocket 4.3 23:32:49 10° SSE 23:38:24 73° WSW 23:44:04 10° NNW
Cosmos 2237 Rocket 3.6 23:36:48 10° NW 23:40:56 21° WSW 23:44:07 14° SW
SL-16 R/B 2.6 23:35:29 10° SSE 23:41:46 74° WSW 23:48:04 10° NNW
PSLV R/B 4.0 23:37:40 10° NNE 23:42:17 66° WNW 23:46:13 15° SW
Cosmos 2219 3.4 23:39:48 15° SSW 23:44:24 63° SE 23:49:59 10° NE
Cosmos 2151 Rocket 3.6 23:41:25 16° SSW 23:44:53 73° WNW 23:49:19 10° NNE
Cosmos 1833 Rocket 4.5 23:39:44 10° WNW 23:44:56 36° N 23:50:08 10° ENE
Cosmos 1503 Rocket 4.5 23:40:01 10° SW 23:45:22 61° NW 23:50:42 10° NE
Cosmos 1655 Rocket 4.0 23:39:13 10° NNW 23:45:33 89° ENE 23:51:49 10° SSE
ATLAS 3B R/B 2.7 23:39:27 10° WSW 23:46:06 89° NNW 23:52:56 10° ENE
Cosmos 1455 Rocket 4.5 23:45:32 10° SSE 23:49:31 33° E 23:53:32 10° NNE
Cosmos 1603 3.7 23:44:30 10° NW 23:50:18 77° SW 23:56:01 10° SSE
Cosmos 1892 Rocket 3.6 23:47:39 10° NNW 23:52:10 81° WSW 23:56:37 10° S
DELTA 2 DEB (DPAF) 4.4 23:50:04 14° S 23:53:49 53° WSW 23:58:12 10° NNW
